Waarnemingen

Advertentie
Mijn weer
Baltasound, Groot Brittannië (3002): temperatuur & dauwpunt: 17.05.2018 18:00:00 - 23.05.2018 18:00:00 (BST)Baltasound, Groot Brittannië (3002): temperatuur -20cm: 17.05.2018 18:00:00 - 23.05.2018 18:00:00 (BST)Baltasound, Groot Brittannië (3002): windsnelheid & windstoten: 17.05.2018 18:00:00 - 23.05.2018 18:00:00 (BST)Baltasound, Groot Brittannië (3002): windrichting: 17.05.2018 18:00:00 - 23.05.2018 18:00:00 (BST)Baltasound, Groot Brittannië (3002): luchtdruk: 17.05.2018 18:00:00 - 23.05.2018 18:00:00 (BST)Baltasound, Groot Brittannië (3002): zicht: 17.05.2018 18:00:00 - 23.05.2018 18:00:00 (BST)Baltasound, Groot Brittannië (3002): neerslag: 17.05.2018 18:00:00 - 23.05.2018 18:00:00 (BST)
Datum & Tijd tt [°C] td [°C] tt -20cm [°C] ff [km/u] ff [kn] fx [km/u] fx [kn] dd ppp [hPa] vv [km] rr [mm]
23.05.2018 18:00:00 - - - - - - - - - - -
23.05.2018 17:00:00 11,1 5,7 - 18 10 - - O 1028,8 25 0,0
23.05.2018 16:00:00 12,1 5,6 - 15 8 - - ONO 1028,9 23 0,0
23.05.2018 15:00:00 11,9 5,8 - 16 9 - - ONO 1029,0 30 0,0
23.05.2018 14:00:00 13,1 2,4 - 9 5 - - NNO 1028,9 50 0,0
23.05.2018 13:00:00 12,6 3,6 - 9 5 - - N 1028,9 30 0,0
23.05.2018 12:00:00 12,1 4,1 - 13 7 - - NO 1029,0 26 0,0
23.05.2018 11:00:00 11,6 3,2 - 8 4 - - NNO 1028,8 19 0,0
23.05.2018 10:00:00 10,5 5,3 10,7 8 4 - - NO 1028,7 30 0,0
23.05.2018 09:00:00 10,5 6,2 - 9 5 - - NO 1028,4 21 0,0
23.05.2018 08:00:00 9,0 5,4 - 11 6 - - NNO 1028,3 22 0,0
23.05.2018 07:00:00 8,8 6,0 - 11 6 - - NNO 1028,1 21 0,0
23.05.2018 06:00:00 6,3 6,1 - 0 0 - - N 1027,8 17 0,0
23.05.2018 05:00:00 3,5 2,8 - 2 1 - - WNW 1027,9 19 0,0
23.05.2018 04:00:00 3,1 2,5 - 4 2 - - W 1028,0 18 0,0
23.05.2018 03:00:00 3,3 2,3 - 0 0 - - N 1027,9 20 0,0
23.05.2018 02:00:00 4,2 3,3 - 0 0 - - N 1028,1 20 0,0
23.05.2018 01:00:00 3,6 2,6 - 0 0 - - N 1028,2 20 0,0
23.05.2018 00:00:00 4,3 3,4 - 0 0 - - N 1028,3 20 0,0
22.05.2018 23:00:00 3,7 2,1 - 0 0 - - N 1028,2 22 0,0
22.05.2018 22:00:00 6,4 3,9 - 11 6 - - NNO 1028,3 22 0,0
22.05.2018 21:00:00 8,0 4,3 - 15 8 - - NNO 1028,1 29 0,0
22.05.2018 20:00:00 9,2 4,6 - 18 10 - - NNO 1027,9 26 0,0
22.05.2018 19:00:00 9,5 4,4 - 21 11 - - NO 1028,0 28 0,0
22.05.2018 18:00:00 10,0 4,6 - 22 12 - - NO 1027,9 20 0,0
22.05.2018 17:00:00 10,5 4,8 - 22 12 - - NNO 1028,2 26 0,0
22.05.2018 16:00:00 10,9 4,7 - 22 12 - - NNO 1028,6 28 0,0
22.05.2018 15:00:00 10,7 5,1 - 22 12 - - NO 1028,4 28 0,0
22.05.2018 14:00:00 10,6 5,5 - 24 13 - - NO 1028,4 28 0,0
22.05.2018 13:00:00 10,2 5,4 - 24 13 - - NNO 1028,3 30 0,0
22.05.2018 12:00:00 10,1 5,8 - 24 13 - - NNO 1028,1 50 0,0
22.05.2018 11:00:00 9,8 4,2 - 24 13 - - NNO 1028,2 35 0,0
22.05.2018 10:00:00 9,6 4,6 10,7 24 13 - - NNO 1028,0 45 0,0
22.05.2018 09:00:00 9,6 4,9 - 22 12 - - NNO 1027,9 50 0,0
22.05.2018 08:00:00 8,3 4,0 - 22 12 - - N 1027,7 50 0,0
22.05.2018 07:00:00 8,5 4,6 - 22 12 - - N 1027,4 50 0,0
22.05.2018 06:00:00 7,5 4,6 - 18 10 - - N 1027,3 45 0,0
22.05.2018 05:00:00 6,9 4,5 - 16 9 - - N 1026,7 50 0,0
22.05.2018 04:00:00 6,8 4,8 - 16 9 - - N 1026,5 45 0,0
22.05.2018 03:00:00 7,1 5,2 - 16 9 - - N 1026,1 45 0,0
22.05.2018 02:00:00 7,2 5,1 - 21 11 - - N 1025,6 50 0,0
22.05.2018 01:00:00 7,2 5,4 - 21 11 - - N 1024,9 45 0,0
22.05.2018 00:00:00 7,1 5,4 - 24 13 - - N 1024,7 23 0,0
21.05.2018 23:00:00 6,7 5,5 - 24 13 - - N 1024,1 28 0,0
21.05.2018 22:00:00 6,5 5,7 - 31 17 46 25 NNW 1023,5 10 0,2
21.05.2018 21:00:00 7,0 6,3 - 31 17 46 25 N 1022,4 7 0,4
21.05.2018 20:00:00 7,4 6,8 - 34 18 46 25 NNW 1021,0 6 0,2
21.05.2018 19:00:00 7,6 7,0 - 31 17 - - N 1020,3 5 0,0
21.05.2018 18:00:00 8,0 7,5 - 26 14 - - N 1020,1 8 0,0
21.05.2018 17:00:00 8,2 7,9 - 26 14 - - N 1019,6 6 0,0
21.05.2018 16:00:00 8,1 7,8 - 28 15 - - NNO 1019,7 5 0,0
21.05.2018 15:00:00 7,9 7,5 - 35 19 50 27 NNO 1019,6 5 0,0
21.05.2018 14:00:00 8,2 7,8 - 28 15 - - N 1019,5 7 0,2
21.05.2018 13:00:00 8,9 8,7 - 24 13 - - N 1019,4 4,0 0,2
21.05.2018 12:00:00 9,6 9,3 - 18 10 - - N 1019,4 6 0,2
21.05.2018 11:00:00 9,7 9,4 - 18 10 - - NNO 1019,3 5 0,4
21.05.2018 10:00:00 10,0 9,8 11,0 4 2 - - NW 1018,8 3,6 0,8
21.05.2018 09:00:00 9,7 9,6 - 9 5 - - Z 1018,5 3,3 1,0
21.05.2018 08:00:00 9,9 9,8 - 9 5 - - NO 1018,1 6 1,8
21.05.2018 07:00:00 9,8 9,6 - 5 3 - - NO 1018,1 4,0 1,6
21.05.2018 06:00:00 9,7 9,6 - 0 0 - - N 1017,9 3,5 1,6
21.05.2018 05:00:00 9,5 9,4 - 0 0 - - N 1017,8 1,5 0,4
21.05.2018 04:00:00 9,5 9,3 - 4 2 - - Z 1017,8 5 0,0
21.05.2018 03:00:00 9,6 9,4 - 9 5 - - ZW 1017,7 3,9 0,6
21.05.2018 02:00:00 9,7 9,4 - 16 9 - - Z 1017,4 3,9 0,6
21.05.2018 01:00:00 10,2 9,9 - 21 11 - - ZZW 1017,0 6 0,0
21.05.2018 00:00:00 10,0 9,6 - 22 12 - - Z 1016,5 5 0,0
20.05.2018 23:00:00 10,1 9,5 - 26 14 - - Z 1016,2 5 0,0
20.05.2018 22:00:00 11,0 9,5 - 24 13 - - Z 1015,8 12 0,0
20.05.2018 21:00:00 10,8 9,2 - 26 14 - - Z 1015,4 10 0,0
20.05.2018 20:00:00 11,5 8,7 - 22 12 - - ZZW 1015,1 10 0,0
20.05.2018 19:00:00 12,1 8,7 - 28 15 - - ZZW 1014,7 13 0,0
20.05.2018 18:00:00 12,7 8,6 - 29 16 - - Z 1014,3 11 0,0
20.05.2018 17:00:00 12,4 8,5 - 31 17 - - Z 1014,1 14 0,0
20.05.2018 16:00:00 12,2 8,4 - 29 16 - - Z 1014,1 13 0,0
20.05.2018 15:00:00 12,9 8,6 - 35 19 - - Z 1014,1 13 0,0
20.05.2018 14:00:00 13,0 9,8 - 34 18 - - Z 1013,9 10 0,0
20.05.2018 13:00:00 12,5 9,0 - 29 16 - - Z 1014,1 10 0,0
20.05.2018 12:00:00 14,0 9,6 - 29 16 - - ZZW 1013,7 22 0,0
20.05.2018 11:00:00 12,5 9,4 - 29 16 - - ZZW 1013,8 16 0,0
20.05.2018 10:00:00 11,3 9,4 11,0 24 13 - - Z 1014,0 11 0,0
20.05.2018 09:00:00 10,3 8,8 - 26 14 - - Z 1013,6 12 0,0
20.05.2018 08:00:00 10,1 9,0 - 26 14 - - Z 1013,2 11 0,2
20.05.2018 07:00:00 10,2 8,9 - 26 14 - - Z 1012,8 9 0,0
20.05.2018 06:00:00 10,3 8,5 - 28 15 - - ZZW 1012,7 10 0,0
20.05.2018 05:00:00 9,9 7,9 - 29 16 50 27 ZZW 1012,3 9 0,0
20.05.2018 04:00:00 9,9 7,8 - 39 21 48 26 Z 1011,9 10 0,0
20.05.2018 03:00:00 9,7 7,7 - 31 17 - - Z 1012,4 10 0,0
20.05.2018 02:00:00 9,6 7,8 - 31 17 - - Z 1012,9 9 0,0
20.05.2018 01:00:00 9,7 8,0 - 34 18 - - Z 1013,4 9 0,0
20.05.2018 00:00:00 9,9 8,1 - 34 18 50 27 Z 1014,0 10 0,0
19.05.2018 23:00:00 10,0 8,0 - 37 20 48 26 Z 1014,3 11 0,0
19.05.2018 22:00:00 10,1 7,9 - 35 19 48 26 Z 1015,2 12 0,0
19.05.2018 21:00:00 10,3 8,0 - 37 20 50 27 Z 1014,9 12 0,0
19.05.2018 20:00:00 10,8 8,3 - 35 19 48 26 Z 1015,7 13 0,0
19.05.2018 19:00:00 11,7 8,6 - 31 17 - - Z 1016,2 17 0,0
19.05.2018 18:00:00 12,4 8,9 - 34 18 48 26 Z 1016,7 15 0,0
19.05.2018 17:00:00 12,4 8,9 - 39 21 46 25 Z 1017,5 14 0,0
19.05.2018 16:00:00 12,7 8,7 - 35 19 - - ZZO 1017,8 11 0,0
19.05.2018 15:00:00 12,7 8,7 - 35 19 - - Z 1018,4 13 0,0
19.05.2018 14:00:00 13,0 8,6 - 34 18 - - Z 1018,6 13 0,0
19.05.2018 13:00:00 13,2 8,8 - 29 16 - - Z 1019,0 19 0,0
19.05.2018 12:00:00 12,9 8,4 - 26 14 - - Z 1019,6 22 0,0
19.05.2018 11:00:00 12,4 8,6 - 31 17 - - Z 1019,8 17 0,0
19.05.2018 10:00:00 12,0 8,4 10,9 31 17 - - Z 1020,1 25 0,0
19.05.2018 09:00:00 12,1 8,3 - 24 13 - - Z 1020,6 25 0,0
19.05.2018 08:00:00 12,1 8,2 - 21 11 - - Z 1020,7 23 0,0
19.05.2018 07:00:00 10,4 8,0 - 21 11 - - Z 1020,7 25 0,0
19.05.2018 06:00:00 9,3 7,8 - 21 11 - - Z 1020,7 23 0,0
19.05.2018 05:00:00 9,4 7,9 - 16 9 - - Z 1021,0 30 0,0
19.05.2018 04:00:00 9,5 8,1 - 16 9 - - Z 1021,2 30 0,0
19.05.2018 03:00:00 9,5 8,0 - 15 8 - - ZZW 1021,5 24 0,0
19.05.2018 02:00:00 9,4 8,4 - 18 10 - - ZZW 1021,6 21 0,0
19.05.2018 01:00:00 9,0 7,3 - 18 10 - - ZW 1021,6 21 0,0
19.05.2018 00:00:00 9,6 7,6 - 16 9 - - ZW 1022,0 25 0,0
18.05.2018 23:00:00 9,9 7,3 - 15 8 - - ZZW 1022,1 35 0,0
18.05.2018 22:00:00 10,2 7,2 - 16 9 - - ZZW 1022,1 35 0,0
18.05.2018 21:00:00 10,7 7,6 - 18 10 - - ZZW 1022,2 30 0,0
18.05.2018 20:00:00 11,3 7,7 - 21 11 - - ZZW 1022,0 30 0,0
18.05.2018 19:00:00 11,9 7,3 - 18 10 - - ZZW 1022,0 35 0,0
18.05.2018 18:00:00 12,6 6,4 - 22 12 - - ZZW 1022,0 29 0,0
18.05.2018 17:00:00 12,9 5,5 - 22 12 - - ZZW 1022,1 35 0,0
18.05.2018 16:00:00 13,6 6,0 - 21 11 - - ZW 1022,3 30 0,0
18.05.2018 15:00:00 12,9 7,6 - 29 16 - - ZZW 1022,4 22 0,0
18.05.2018 14:00:00 13,1 7,2 - 29 16 - - Z 1022,4 22 0,0
18.05.2018 13:00:00 12,2 6,4 - 29 16 - - Z 1022,6 20 0,0
18.05.2018 12:00:00 11,4 6,3 - 29 16 - - Z 1022,7 20 0,0
18.05.2018 11:00:00 10,7 6,0 - 35 19 - - Z 1023,1 19 0,0
18.05.2018 10:00:00 11,3 6,4 11,0 28 15 - - ZZO 1023,3 24 0,0
18.05.2018 09:00:00 11,0 7,2 - 26 14 - - Z 1023,7 13 0,0
18.05.2018 08:00:00 9,9 7,4 - 21 11 - - Z 1023,9 16 0,0
18.05.2018 07:00:00 8,7 7,8 - 15 8 - - Z 1024,2 12 0,0
18.05.2018 06:00:00 7,2 6,7 - 8 4 - - ZZW 1024,6 11 0,0
18.05.2018 05:00:00 7,1 7,0 - 13 7 - - ZZW 1025,2 11 0,0
18.05.2018 04:00:00 4,0 3,9 - 9 5 - - ZZW 1025,4 8 0,0
18.05.2018 03:00:00 2,5 2,2 - 0 0 - - N 1025,5 5 0,0
18.05.2018 02:00:00 3,0 2,6 - 0 0 - - N 1026,0 0,5 0,0
18.05.2018 01:00:00 2,8 2,3 - 0 0 - - N 1026,4 9 0,0
18.05.2018 00:00:00 3,0 2,3 - 0 0 - - N 1027,0 13 0,0
17.05.2018 23:00:00 2,8 1,7 - 2 1 - - ZW 1027,2 11 0,0
17.05.2018 22:00:00 5,0 3,2 - 2 1 - - ZW 1027,5 13 0,0
17.05.2018 21:00:00 8,6 5,6 - 4 2 - - W 1027,6 13 0,0
17.05.2018 20:00:00 9,8 6,0 - 9 5 - - WNW 1027,8 12 0,0
17.05.2018 19:00:00 10,1 5,7 - 15 8 - - NW 1028,0 14 0,0
17.05.2018 18:00:00 11,0 6,2 - 16 9 - - WNW 1028,3 12 0,0

tt = temperatuur
td = dauwpunt
tt -20cm = temperatuur -20cm
ff = windsnelheid
fx = windstoten
dd = windrichting
ppp = luchtdruk
vv = zicht
rr = neerslag

Weerstations in de omgeving